Weather History for KTCM - February, 2011

Change the Weather History Date:

Wednesday, February 23, 2011

  Actual Average Record
Temperature  
Mean Temperature 32 °F -  
Max Temperature 36 °F 48 °F 64 °F (1958)
Min Temperature 28 °F 30 °F 24 °F (1998)
Degree Days  
Heating Degree Days 33    
Moisture  
Dew Point 31 °F    
Average Humidity 93    
Maximum Humidity 100    
Minimum Humidity 83    
Precipitation  
Precipitation 0.19 in - - ()
Sea Level Pressure  
Sea Level Pressure 29.89 in    
Wind  
Wind Speed 11 mph (SSW)    
Max Wind Speed 21 mph    
Max Gust Speed 25 mph    
Visibility 6 miles    
Events Fog , Rain , Snow    
Averages and records for this station are not official NWS values.
T = Trace of Precipitation, MM = Missing Value Source: NWS Daily Summary

Daily Weather History Graph

Daily Weather History Graph

Search for Another Location

Airport or City:

Trip Planner

Search our weather history database for the weather conditions in past years. The results will help you decide how hot, cold, wet, or windy it might be!

Date:

Astronomy

Feb. 23, 2011 Rise Set
Actual Time 7:01 AM PST 5:46 PM PST
Civil Twilight 6:30 AM PST 6:17 PM PST
Nautical Twilight 5:54 AM PST 6:52 PM PST
Astronomical Twilight 5:19 AM PST 7:27 PM PST
Moon 12:08 AM PST (2/23) 9:20 AM PST (2/23)
Length of Visible Light 11h 46m
Length of Day
10h 44m
Waning Gibbous, 63% of the Moon is Illuminated
Feb 23
Waning Gibbous
Feb 24
Last Quarter
Mar 4
New
Mar 12
First Quarter
Mar 19
Full

Hourly Weather History & Observations

Time (PST) Temp. Windchill Dew Point Humidity Pressure Visibility Wind Dir Wind Speed Gust Speed Precip Events Conditions
12:55 AM 34.5 °F 25.3 °F 29.8 °F 83% 30.04 in 10.0 mi SSW 13.8 mph 21.9 mph N/A   Overcast
1:09 AM 33.8 °F 23.9 °F 30.2 °F 87% 30.04 in 10.0 mi SW 15.0 mph - N/A   Overcast
1:21 AM 33.8 °F 24.8 °F 30.2 °F 87% 30.04 in 5.0 mi SW 12.7 mph - N/A Snow Light Snow
1:35 AM 33.8 °F 26.4 °F 32.0 °F 93% 30.03 in 9.0 mi SSW 9.2 mph - N/A Snow Light Snow
1:45 AM 33.8 °F 27.7 °F 32.0 °F 93% 30.03 in 10.0 mi SSW 6.9 mph - N/A Snow Light Snow
1:55 AM 33.4 °F 28.1 °F 31.5 °F 92% 30.03 in 10.0 mi South 5.8 mph - 0.00 in Snow Light Snow
2:00 AM 33.8 °F 28.6 °F 32.0 °F 93% 30.03 in 10.0 mi South 5.8 mph - N/A Snow Light Snow
2:09 AM 32.0 °F 25.6 °F 32.0 °F 100% 30.02 in 10.0 mi South 6.9 mph - N/A   Overcast
2:23 AM 32.0 °F 25.6 °F 32.0 °F 100% 30.03 in 10.0 mi South 6.9 mph - N/A Snow Light Snow
2:26 AM 32.0 °F 26.4 °F 32.0 °F 100% 30.02 in 10.0 mi South 5.8 mph - N/A Snow Light Snow
2:41 AM 32.0 °F 24.2 °F 32.0 °F 100% 30.01 in 10.0 mi South 9.2 mph - N/A   Overcast
2:49 AM 32.0 °F 24.8 °F 32.0 °F 100% 30.01 in 10.0 mi SSE 8.1 mph - N/A   Overcast
2:54 AM 32.0 °F 24.8 °F 32.0 °F 100% 30.01 in 10.0 mi SSE 8.1 mph - N/A   Overcast
2:55 AM 32.7 °F 25.7 °F 31.5 °F 95% 30.01 in 10.0 mi South 8.1 mph - 0.00 in   Overcast
3:07 AM 33.8 °F 26.4 °F 32.0 °F 93% 30.00 in 10.0 mi South 9.2 mph - N/A   Overcast
3:08 AM 33.8 °F 26.4 °F 32.0 °F 93% 30.00 in 10.0 mi South 9.2 mph - N/A   Overcast
3:11 AM 33.8 °F 27.0 °F 32.0 °F 93% 30.00 in 10.0 mi South 8.1 mph - N/A   Overcast
3:55 AM 33.3 °F 25.1 °F 31.6 °F 94% 29.98 in 10.0 mi South 10.4 mph - N/A   Overcast
3:57 AM 33.8 °F 25.8 °F 32.0 °F 93% 29.98 in 10.0 mi South 10.4 mph - N/A   Overcast
3:58 AM 33.8 °F 26.4 °F 32.0 °F 93% 29.98 in 10.0 mi South 9.2 mph - N/A   Overcast
3:59 AM 33.8 °F 26.4 °F 32.0 °F 93% 29.98 in 10.0 mi South 9.2 mph - N/A   Overcast
4:05 AM 33.8 °F 25.3 °F 32.0 °F 93% 29.98 in 10.0 mi South 11.5 mph - N/A   Overcast
4:17 AM 33.8 °F 25.3 °F 32.0 °F 93% 29.97 in 10.0 mi South 11.5 mph - N/A   Overcast
4:29 AM 33.8 °F 25.3 °F 32.0 °F 93% 29.97 in 10.0 mi South 11.5 mph - N/A   Overcast
4:55 AM 33.8 °F 24.8 °F 32.0 °F 93% 29.96 in 10.0 mi SSW 12.7 mph - 0.00 in   Overcast
5:08 AM 33.8 °F 24.3 °F 32.0 °F 93% 29.96 in 10.0 mi SSW 13.8 mph - N/A   Overcast
5:19 AM 33.8 °F 24.8 °F 32.0 °F 93% 29.96 in 10.0 mi South 12.7 mph - N/A   Overcast
5:21 AM 33.8 °F 25.3 °F 32.0 °F 93% 29.96 in 10.0 mi South 11.5 mph - N/A   Overcast
5:38 AM 33.8 °F 24.8 °F 32.0 °F 93% 29.95 in 10.0 mi SSW 12.7 mph - N/A   Overcast
5:55 AM 33.6 °F 25.0 °F 31.6 °F 92% 29.94 in 10.0 mi South 11.5 mph - N/A   Overcast
6:11 AM 33.8 °F 24.8 °F 32.0 °F 93% 29.94 in 10.0 mi SSW 12.7 mph - N/A   Overcast
6:30 AM 33.8 °F 23.5 °F 32.0 °F 93% 29.94 in 10.0 mi SSW 16.1 mph - N/A   Overcast
6:44 AM 33.8 °F 25.8 °F 32.0 °F 93% 29.94 in 10.0 mi SSW 10.4 mph - N/A   Light Drizzle
6:55 AM 33.6 °F 25.0 °F 31.8 °F 93% 29.93 in 9.0 mi South 11.5 mph - 0.00 in   Overcast
7:09 AM 33.8 °F 24.8 °F 32.0 °F 93% 29.94 in 10.0 mi SSW 12.7 mph - N/A   Overcast
7:12 AM 33.8 °F 24.8 °F 32.0 °F 93% 29.94 in 10.0 mi SSW 12.7 mph - N/A   Overcast
7:24 AM 33.8 °F 23.5 °F 32.0 °F 93% 29.93 in 10.0 mi South 16.1 mph - N/A   Overcast
7:28 AM 33.8 °F 23.5 °F 32.0 °F 93% 29.93 in 10.0 mi South 16.1 mph - N/A   Mostly Cloudy
7:36 AM 33.8 °F 23.5 °F 32.0 °F 93% 29.94 in 10.0 mi SSW 16.1 mph - N/A Rain Light Rain
7:38 AM 33.8 °F 23.5 °F 32.0 °F 93% 29.94 in 9.0 mi SSW 16.1 mph - N/A Rain Light Rain
7:47 AM 33.8 °F 23.9 °F 32.0 °F 93% 29.94 in 2.5 mi SSW 15.0 mph - N/A Snow Light Snow
7:50 AM 33.8 °F 23.9 °F 32.0 °F 93% 29.94 in 2.0 mi SSW 15.0 mph - N/A Snow Light Snow
7:52 AM 33.8 °F 23.5 °F 32.0 °F 93% 29.93 in 1.8 mi SSW 16.1 mph 23.0 mph N/A Snow Light Snow
7:54 AM 33.8 °F 22.5 °F 32.0 °F 93% 29.93 in 1.5 mi South 19.6 mph 24.2 mph N/A Snow Light Snow
7:55 AM 33.1 °F 21.2 °F 31.6 °F 94% 29.93 in 1.5 mi SSW 20.7 mph 24.2 mph 0.00 in Snow Light Snow
7:56 AM 33.8 °F 22.5 °F 32.0 °F 93% 29.93 in 1.8 mi SSW 19.6 mph 24.2 mph N/A Snow Light Snow
7:58 AM 33.8 °F 23.5 °F 32.0 °F 93% 29.93 in 2.0 mi SSW 16.1 mph 24.2 mph N/A Snow Light Snow
8:00 AM 33.8 °F 23.2 °F 32.0 °F 93% 29.93 in 2.5 mi SSW 17.3 mph 24.2 mph N/A Snow Light Snow
8:02 AM 33.8 °F 23.2 °F 32.0 °F 93% 29.93 in 3.0 mi SSW 17.3 mph 24.2 mph N/A Snow Light Snow
8:06 AM 33.8 °F 23.9 °F 30.2 °F 87% 29.93 in 9.0 mi SSW 15.0 mph 24.2 mph N/A Snow Light Snow
8:08 AM 33.8 °F 23.5 °F 30.2 °F 87% 29.93 in 10.0 mi SSW 16.1 mph 24.2 mph N/A   Overcast
8:55 AM 34.9 °F 27.1 °F 32.4 °F 91% 29.93 in 10.0 mi SSW 10.4 mph - 0.00 in   Partly Cloudy
9:42 AM 35.6 °F 28.0 °F 32.0 °F 87% 29.93 in 10.0 mi SSW 10.4 mph - N/A   Mostly Cloudy
9:45 AM 35.6 °F 28.0 °F 32.0 °F 87% 29.93 in 10.0 mi SSW 10.4 mph - N/A   Mostly Cloudy
9:50 AM 35.6 °F 28.0 °F 32.0 °F 87% 29.93 in 10.0 mi SSW 10.4 mph - N/A   Overcast
9:51 AM 35.6 °F 28.0 °F 32.0 °F 87% 29.93 in 10.0 mi SSW 10.4 mph - N/A   Overcast
9:54 AM 35.6 °F 27.1 °F 32.0 °F 87% 29.94 in 10.0 mi SSW 12.7 mph - N/A   Overcast
9:55 AM 36.1 °F 28.2 °F 32.5 °F 87% 29.94 in 10.0 mi SW 11.5 mph - 0.00 in   Mostly Cloudy
9:57 AM 35.6 °F 27.1 °F 32.0 °F 87% 29.94 in 10.0 mi SSW 12.7 mph 18.4 mph N/A Snow Light Snow
10:00 AM 35.6 °F 27.1 °F 32.0 °F 87% 29.94 in 6.0 mi SSW 12.7 mph 18.4 mph N/A Snow Light Snow
10:04 AM 35.6 °F 27.1 °F 32.0 °F 87% 29.94 in 3.0 mi SSW 12.7 mph - N/A Snow Light Snow
10:05 AM 33.8 °F 25.3 °F 32.0 °F 93% 29.93 in 2.5 mi SSW 11.5 mph - N/A Snow Light Snow
10:07 AM 33.8 °F 25.3 °F 32.0 °F 93% 29.93 in 2.0 mi SSW 11.5 mph - N/A Snow Light Snow
10:15 AM 33.8 °F 26.4 °F 32.0 °F 93% 29.93 in 2.5 mi SSW 9.2 mph - N/A Snow Light Snow
10:19 AM 33.8 °F 23.9 °F 32.0 °F 93% 29.93 in 2.0 mi South 15.0 mph - N/A Snow Light Snow
10:20 AM 33.8 °F 23.9 °F 32.0 °F 93% 29.93 in 1.8 mi South 15.0 mph - N/A Snow Light Snow
10:21 AM 33.8 °F 23.5 °F 32.0 °F 93% 29.93 in 1.5 mi South 16.1 mph 21.9 mph N/A Snow Light Snow
10:24 AM 33.8 °F 24.3 °F 32.0 °F 93% 29.93 in 1.0 mi SSW 13.8 mph 21.9 mph N/A Snow Light Snow
10:26 AM 33.8 °F 24.3 °F 32.0 °F 93% 29.93 in 0.8 mi SSW 13.8 mph 21.9 mph N/A Snow Light Snow
10:27 AM 33.8 °F 24.8 °F 32.0 °F 93% 29.93 in 0.8 mi SSW 12.7 mph 21.9 mph N/A Snow Light Snow
10:33 AM 32.0 °F 24.2 °F 32.0 °F 100% 29.93 in 1.0 mi SSW 9.2 mph - N/A Snow Light Snow
10:38 AM 32.0 °F 26.4 °F 32.0 °F 100% 29.92 in 1.0 mi South 5.8 mph - N/A Snow Light Snow
10:39 AM 32.0 °F 25.6 °F 32.0 °F 100% 29.92 in 1.0 mi South 6.9 mph - N/A Snow Light Snow
10:45 AM 32.0 °F 25.6 °F 32.0 °F 100% 29.92 in 1.2 mi South 6.9 mph - N/A Snow Light Snow
10:52 AM 32.0 °F 24.2 °F 32.0 °F 100% 29.92 in 1.8 mi South 9.2 mph - N/A Snow Light Snow
10:54 AM 32.0 °F 24.2 °F 32.0 °F 100% 29.92 in 2.0 mi South 9.2 mph - N/A Snow Light Snow
10:55 AM 32.7 °F 25.0 °F 32.2 °F 98% 29.92 in 2.5 mi South 9.2 mph - 0.06 in Snow Light Snow
10:56 AM 32.0 °F 24.2 °F 32.0 °F 100% 29.92 in 3.0 mi South 9.2 mph - N/A Snow Light Snow
11:07 AM 33.8 °F 26.4 °F 32.0 °F 93% 29.92 in 10.0 mi South 9.2 mph - N/A   Overcast
11:11 AM 33.8 °F 25.8 °F 32.0 °F 93% 29.91 in 10.0 mi South 10.4 mph - N/A   Mostly Cloudy
11:12 AM 35.6 °F 28.6 °F 32.0 °F 87% 29.91 in 10.0 mi South 9.2 mph - N/A   Mostly Cloudy
11:35 AM 35.6 °F 28.6 °F 32.0 °F 87% 29.90 in 10.0 mi South 9.2 mph - N/A   Mostly Cloudy
11:44 AM 35.6 °F 27.1 °F 32.0 °F 87% 29.90 in 10.0 mi South 12.7 mph - N/A Rain Light Rain
11:49 AM 35.6 °F 27.1 °F 32.0 °F 87% 29.90 in 10.0 mi South 12.7 mph - N/A Rain Light Rain
11:50 AM 35.6 °F 26.2 °F 32.0 °F 87% 29.90 in 10.0 mi South 15.0 mph - N/A Snow Light Snow
11:51 AM 35.6 °F 26.2 °F 32.0 °F 87% 29.89 in 10.0 mi South 15.0 mph - N/A   Overcast
11:52 AM 35.6 °F 26.2 °F 32.0 °F 87% 29.89 in 10.0 mi South 15.0 mph - N/A   Overcast
11:54 AM 35.6 °F 26.2 °F 32.0 °F 87% 29.89 in 10.0 mi South 15.0 mph - N/A   Overcast
11:55 AM 35.8 °F 26.5 °F 32.5 °F 88% 29.89 in 10.0 mi South 15.0 mph - 0.01 in   Overcast
11:58 AM 35.6 °F 25.9 °F 32.0 °F 87% 29.89 in 10.0 mi SSW 16.1 mph 21.9 mph N/A   Overcast
12:05 PM 35.6 °F 25.9 °F 32.0 °F 87% 29.89 in 10.0 mi SSW 16.1 mph 23.0 mph N/A Rain Light Rain
12:06 PM 35.6 °F 25.2 °F 32.0 °F 87% 29.89 in 8.0 mi SSW 18.4 mph 23.0 mph N/A Rain Light Rain
12:09 PM 35.6 °F 25.9 °F 32.0 °F 87% 29.89 in 3.0 mi SSW 16.1 mph 23.0 mph N/A Snow Light Snow
12:10 PM 35.6 °F 26.2 °F 32.0 °F 87% 29.89 in 3.0 mi South 15.0 mph 23.0 mph N/A Snow Light Snow
12:11 PM 35.6 °F 26.2 °F 32.0 °F 87% 29.89 in 2.5 mi South 15.0 mph 23.0 mph N/A Snow Light Snow
12:12 PM 33.8 °F 24.3 °F 32.0 °F 93% 29.89 in 2.0 mi South 13.8 mph 23.0 mph N/A Snow Light Snow
12:15 PM 33.8 °F 26.4 °F 32.0 °F 93% 29.89 in 1.8 mi SSW 9.2 mph 23.0 mph N/A Snow Light Snow
12:24 PM 33.8 °F 25.8 °F 32.0 °F 93% 29.88 in 1.5 mi South 10.4 mph - N/A Snow Light Snow
12:25 PM 33.8 °F 25.3 °F 32.0 °F 93% 29.88 in 1.5 mi South 11.5 mph - N/A Snow Light Snow
12:28 PM 33.8 °F 23.2 °F 32.0 °F 93% 29.88 in 1.8 mi South 17.3 mph - N/A Snow Light Snow
12:32 PM 33.8 °F 22.5 °F 32.0 °F 93% 29.88 in 2.0 mi SSW 19.6 mph 25.3 mph N/A Snow Light Snow
12:35 PM 33.8 °F 23.2 °F 32.0 °F 93% 29.88 in 2.5 mi SW 17.3 mph 25.3 mph N/A Snow Light Snow
12:37 PM 33.8 °F 24.8 °F 32.0 °F 93% 29.88 in 3.0 mi WSW 12.7 mph 25.3 mph N/A Snow Light Snow
12:41 PM 33.8 °F 25.8 °F 32.0 °F 93% 29.88 in 4.0 mi WSW 10.4 mph 25.3 mph N/A Snow Light Snow
12:44 PM 33.8 °F 25.3 °F 32.0 °F 93% 29.88 in 7.0 mi WSW 11.5 mph - N/A Snow Light Snow
12:53 PM 33.8 °F 26.4 °F 32.0 °F 93% 29.88 in 10.0 mi WSW 9.2 mph - N/A   Overcast
12:55 PM 33.6 °F 25.6 °F 32.0 °F 94% 29.88 in 10.0 mi SW 10.4 mph - 0.04 in   Overcast
12:56 PM 33.8 °F 25.3 °F 32.0 °F 93% 29.88 in 10.0 mi SW 11.5 mph - N/A   Overcast
1:05 PM 33.8 °F 27.7 °F 32.0 °F 93% 29.87 in 10.0 mi SW 6.9 mph - N/A   Mostly Cloudy
1:13 PM 33.8 °F 27.7 °F 32.0 °F 93% 29.87 in 10.0 mi South 6.9 mph - N/A Snow Light Snow
1:18 PM 33.8 °F 27.0 °F 32.0 °F 93% 29.87 in 10.0 mi South 8.1 mph - N/A Snow Light Snow
1:22 PM 33.8 °F 26.4 °F 32.0 °F 93% 29.86 in 10.0 mi South 9.2 mph - N/A   Overcast
1:27 PM 35.6 °F 29.9 °F 33.8 °F 93% 29.86 in 10.0 mi Variable 6.9 mph - N/A   Overcast
1:28 PM 35.6 °F 29.9 °F 33.8 °F 93% 29.86 in 10.0 mi South 6.9 mph - N/A   Overcast
1:29 PM 35.6 °F 29.9 °F 33.8 °F 93% 29.86 in 10.0 mi South 6.9 mph - N/A   Overcast
1:33 PM 35.6 °F 32.8 °F 33.8 °F 93% 29.86 in 10.0 mi SSW 3.5 mph - N/A   Mostly Cloudy
1:34 PM 35.6 °F 31.7 °F 33.8 °F 93% 29.86 in 10.0 mi South 4.6 mph - N/A   Mostly Cloudy
1:36 PM 35.6 °F 30.7 °F 33.8 °F 93% 29.86 in 10.0 mi SSW 5.8 mph - N/A   Mostly Cloudy
1:38 PM 35.6 °F 30.7 °F 32.0 °F 87% 29.86 in 10.0 mi South 5.8 mph - N/A   Mostly Cloudy
1:55 PM 36.3 °F 30.1 °F 32.9 °F 87% 29.85 in 10.0 mi SSW 8.1 mph - 0.00 in   Scattered Clouds
2:06 PM 35.6 °F 30.7 °F 32.0 °F 87% 29.85 in 10.0 mi SSW 5.8 mph - N/A   Mostly Cloudy
2:07 PM 35.6 °F 31.7 °F 32.0 °F 87% 29.85 in 10.0 mi South 4.6 mph - N/A   Mostly Cloudy
2:08 PM 35.6 °F 29.9 °F 32.0 °F 87% 29.84 in 10.0 mi South 6.9 mph - N/A Rain Light Rain
2:21 PM 35.6 °F 29.9 °F 33.8 °F 93% 29.84 in 10.0 mi South 6.9 mph - N/A Rain Light Rain
2:23 PM 35.6 °F 30.7 °F 33.8 °F 93% 29.84 in 8.0 mi South 5.8 mph - N/A Rain Light Rain
2:27 PM 35.6 °F 29.9 °F 32.0 °F 87% 29.84 in 8.0 mi South 6.9 mph - N/A Snow Light Snow
2:30 PM 35.6 °F 30.7 °F 33.8 °F 93% 29.84 in 8.0 mi South 5.8 mph - N/A Snow Light Snow
2:38 PM 35.6 °F 28.6 °F 32.0 °F 87% 29.82 in 0.5 mi WSW 9.2 mph - N/A Snow Light Snow
2:41 PM 33.8 °F 23.9 °F 32.0 °F 93% 29.85 in 0.5 mi West 15.0 mph 21.9 mph N/A Fog , Snow Light Snow
2:42 PM 33.8 °F 25.3 °F 32.0 °F 93% 29.85 in 0.5 mi West 11.5 mph 21.9 mph N/A Fog , Snow Light Snow
2:43 PM 33.8 °F 27.0 °F 32.0 °F 93% 29.85 in 0.2 mi West 8.1 mph 21.9 mph N/A Fog , Snow Light Snow
2:44 PM 33.8 °F 28.6 °F 32.0 °F 93% 29.85 in 0.2 mi West 5.8 mph 21.9 mph N/A Fog , Snow Snow
2:46 PM 33.8 °F 28.6 °F 32.0 °F 93% 29.84 in 0.2 mi WNW 5.8 mph 21.9 mph N/A Fog , Snow Snow
2:51 PM 32.0 °F 25.6 °F 32.0 °F 100% 29.84 in 0.5 mi West 6.9 mph - N/A Fog , Snow Light Snow
2:53 PM 32.0 °F 27.5 °F 32.0 °F 100% 29.84 in 0.8 mi West 4.6 mph - N/A Snow Light Snow
2:54 PM 32.0 °F 27.5 °F 32.0 °F 100% 29.84 in 1.2 mi West 4.6 mph - N/A Snow Light Snow
2:55 PM 32.9 °F 28.5 °F 31.8 °F 96% 29.84 in 2.0 mi West 4.6 mph - 0.02 in Snow Light Snow
2:56 PM 32.0 °F 27.5 °F 32.0 °F 100% 29.84 in 3.0 mi West 4.6 mph - N/A Snow Light Snow
3:02 PM 33.8 °F 30.8 °F 32.0 °F 93% 29.84 in 10.0 mi WSW 3.5 mph - N/A Snow Light Snow
3:03 PM 33.8 °F 30.8 °F 32.0 °F 93% 29.84 in 10.0 mi WSW 3.5 mph - N/A   Overcast
3:04 PM 33.8 °F 30.8 °F 32.0 °F 93% 29.84 in 10.0 mi WSW 3.5 mph - N/A   Overcast
3:05 PM 33.8 °F 30.8 °F 32.0 °F 93% 29.83 in 10.0 mi West 3.5 mph - N/A   Overcast
3:09 PM 33.8 °F 29.6 °F 32.0 °F 93% 29.84 in 10.0 mi SSW 4.6 mph - N/A   Overcast
3:10 PM 33.8 °F 29.6 °F 32.0 °F 93% 29.83 in 10.0 mi SW 4.6 mph - N/A   Overcast
3:11 PM 33.8 °F 29.6 °F 32.0 °F 93% 29.83 in 10.0 mi SW 4.6 mph - N/A   Overcast
3:23 PM 33.8 °F 27.7 °F 32.0 °F 93% 29.83 in 8.0 mi SSW 6.9 mph - N/A   Overcast
3:24 PM 33.8 °F 27.7 °F 32.0 °F 93% 29.83 in 7.0 mi SSW 6.9 mph - N/A Snow Light Snow
3:29 PM 33.8 °F 27.0 °F 32.0 °F 93% 29.83 in 7.0 mi SSW 8.1 mph - N/A Snow Light Snow
3:34 PM 35.6 °F 27.5 °F 32.0 °F 87% 29.83 in 10.0 mi South 11.5 mph - N/A Snow Light Snow
3:35 PM 35.6 °F 28.0 °F 32.0 °F 87% 29.83 in 10.0 mi SSW 10.4 mph - N/A   Scattered Clouds
3:48 PM 35.6 °F 28.0 °F 32.0 °F 87% 29.82 in 10.0 mi South 10.4 mph - N/A   Partly Cloudy
3:55 PM 35.8 °F 27.3 °F 32.4 °F 87% 29.82 in 10.0 mi South 12.7 mph - 0.02 in   Clear
4:25 PM 33.8 °F 25.3 °F 32.0 °F 93% 29.82 in 10.0 mi SSW 11.5 mph - N/A   Mostly Cloudy
4:26 PM 33.8 °F 24.8 °F 32.0 °F 93% 29.82 in 10.0 mi SSW 12.7 mph - N/A   Mostly Cloudy
4:28 PM 33.8 °F 25.3 °F 32.0 °F 93% 29.82 in 8.0 mi SSW 11.5 mph - N/A   Mostly Cloudy
4:36 PM 33.8 °F 23.5 °F 32.0 °F 93% 29.82 in 7.0 mi SSW 16.1 mph - N/A Snow Light Snow
4:38 PM 33.8 °F 22.8 °F 32.0 °F 93% 29.82 in 8.0 mi SW 18.4 mph - N/A Snow Light Snow
4:40 PM 33.8 °F 22.8 °F 32.0 °F 93% 29.82 in 10.0 mi SW 18.4 mph - N/A   Mostly Cloudy
4:43 PM 33.8 °F 24.3 °F 30.2 °F 87% 29.82 in 10.0 mi SSW 13.8 mph - N/A Rain Light Rain
4:55 PM 33.3 °F 23.7 °F 31.1 °F 92% 29.82 in 4.0 mi SW 13.8 mph - 0.01 in Snow Light Snow
5:01 PM 33.8 °F 24.3 °F 30.2 °F 87% 29.83 in 2.5 mi SSW 13.8 mph - N/A Snow Light Snow
5:03 PM 32.0 °F 22.1 °F 30.2 °F 93% 29.83 in 2.0 mi SSW 13.8 mph - N/A Snow Light Snow
5:06 PM 32.0 °F 21.6 °F 30.2 °F 93% 29.82 in 1.8 mi SSW 15.0 mph - N/A Snow Light Snow
5:08 PM 32.0 °F 21.6 °F 30.2 °F 93% 29.83 in 1.5 mi SSW 15.0 mph - N/A Snow Light Snow
5:10 PM 32.0 °F 21.6 °F 30.2 °F 93% 29.83 in 1.0 mi South 15.0 mph - N/A Snow Light Snow
5:15 PM 32.0 °F 21.6 °F 30.2 °F 93% 29.82 in 1.0 mi South 15.0 mph - N/A Snow Light Snow
5:18 PM 32.0 °F 22.1 °F 30.2 °F 93% 29.83 in 1.2 mi South 13.8 mph - N/A Snow Light Snow
5:20 PM 32.0 °F 22.1 °F 30.2 °F 93% 29.82 in 1.8 mi South 13.8 mph - N/A Snow Light Snow
5:21 PM 32.0 °F 22.1 °F 30.2 °F 93% 29.83 in 2.5 mi South 13.8 mph - N/A Snow Light Snow
5:23 PM 32.0 °F 21.6 °F 30.2 °F 93% 29.83 in 3.0 mi South 15.0 mph - N/A Snow Light Snow
5:25 PM 32.0 °F 21.6 °F 30.2 °F 93% 29.83 in 2.5 mi South 15.0 mph - N/A Snow Light Snow
5:26 PM 32.0 °F 22.1 °F 30.2 °F 93% 29.83 in 2.5 mi South 13.8 mph - N/A Snow Light Snow
5:27 PM 32.0 °F 22.5 °F 30.2 °F 93% 29.83 in 2.0 mi South 12.7 mph - N/A Snow Light Snow
5:28 PM 32.0 °F 22.5 °F 30.2 °F 93% 29.83 in 1.8 mi SSW 12.7 mph - N/A Snow Light Snow
5:29 PM 32.0 °F 23.6 °F 30.2 °F 93% 29.83 in 1.5 mi SSW 10.4 mph - N/A Snow Light Snow
5:35 PM 32.0 °F 24.2 °F 32.0 °F 100% 29.83 in 1.8 mi South 9.2 mph - N/A Snow Light Snow
5:37 PM 32.0 °F 24.8 °F 32.0 °F 100% 29.82 in 2.0 mi South 8.1 mph - N/A Snow Light Snow
5:38 PM 32.0 °F 24.2 °F 32.0 °F 100% 29.82 in 2.5 mi South 9.2 mph - N/A Snow Light Snow
5:40 PM 32.0 °F 24.8 °F 32.0 °F 100% 29.82 in 3.0 mi South 8.1 mph - N/A Snow Light Snow
5:49 PM 32.0 °F 24.8 °F 30.2 °F 93% 29.82 in 10.0 mi South 8.1 mph - N/A Snow Light Snow
5:51 PM 32.0 °F 24.8 °F 30.2 °F 93% 29.83 in 10.0 mi South 8.1 mph - N/A   Mostly Cloudy
5:55 PM 31.6 °F 24.4 °F 30.4 °F 95% 29.83 in 10.0 mi South 8.1 mph - 0.00 in   Mostly Cloudy
6:55 PM 30.9 °F 26.2 °F 29.8 °F 96% 29.83 in 10.0 mi SSE 4.6 mph - N/A   Scattered Clouds
7:11 PM 32.0 °F 25.6 °F 30.2 °F 93% 29.83 in 10.0 mi SSE 6.9 mph - N/A   Mostly Cloudy
7:21 PM 32.0 °F 24.8 °F 30.2 °F 93% 29.83 in 10.0 mi South 8.1 mph - N/A   Mostly Cloudy
7:27 PM 30.2 °F 21.9 °F 30.2 °F 100% 29.83 in 10.0 mi South 9.2 mph - N/A   Scattered Clouds
7:55 PM 29.7 °F 23.7 °F 28.6 °F 96% 29.83 in 10.0 mi South 5.8 mph - N/A   Partly Cloudy
8:55 PM 31.5 °F 25.8 °F 29.5 °F 92% 29.84 in 10.0 mi SSW 5.8 mph - N/A   Mostly Cloudy
9:20 PM 32.0 °F 25.6 °F 30.2 °F 93% 29.85 in 10.0 mi SSW 6.9 mph - N/A   Mostly Cloudy
9:30 PM 32.0 °F 25.6 °F 30.2 °F 93% 29.85 in 3.0 mi SSW 6.9 mph - N/A Snow Light Snow
9:31 PM 32.0 °F 25.6 °F 30.2 °F 93% 29.85 in 2.5 mi South 6.9 mph - N/A Snow Light Snow
9:34 PM 32.0 °F 25.6 °F 30.2 °F 93% 29.85 in 2.0 mi South 6.9 mph - N/A Snow Light Snow
9:35 PM 32.0 °F 26.4 °F 30.2 °F 93% 29.85 in 2.0 mi South 5.8 mph - N/A Snow Light Snow
9:36 PM 32.0 °F 26.4 °F 30.2 °F 93% 29.85 in 2.0 mi South 5.8 mph - N/A Snow Light Snow
9:38 PM 32.0 °F 26.4 °F 30.2 °F 93% 29.85 in 2.5 mi South 5.8 mph - N/A Snow Light Snow
9:40 PM 32.0 °F 25.6 °F 30.2 °F 93% 29.85 in 3.0 mi South 6.9 mph - N/A Snow Light Snow
9:42 PM 32.0 °F 25.6 °F 30.2 °F 93% 29.85 in 4.0 mi South 6.9 mph - N/A Snow Light Snow
9:55 PM 31.6 °F 27.0 °F 30.4 °F 95% 29.85 in 8.0 mi South 4.6 mph - 0.00 in Snow Light Snow
10:18 PM 32.0 °F 23.0 °F 30.2 °F 93% 29.86 in 6.0 mi NW 11.5 mph - N/A Snow Light Snow
10:22 PM 30.2 °F 21.9 °F 28.4 °F 93% 29.86 in 4.0 mi NNW 9.2 mph - N/A Snow Light Snow
10:26 PM 30.2 °F 23.4 °F 28.4 °F 93% 29.86 in 2.5 mi North 6.9 mph - N/A Snow Light Snow
10:29 PM 30.2 °F 24.3 °F 28.4 °F 93% 29.87 in 2.0 mi North 5.8 mph - N/A Snow Light Snow
10:32 PM 30.2 °F 20.8 °F 28.4 °F 93% 29.86 in 1.8 mi NNE 11.5 mph - N/A Snow Light Snow
10:33 PM 30.2 °F 19.8 °F 28.4 °F 93% 29.86 in 1.5 mi NNE 13.8 mph - N/A Snow Light Snow
10:34 PM 30.2 °F 20.2 °F 28.4 °F 93% 29.86 in 1.2 mi North 12.7 mph - N/A Snow Light Snow
10:36 PM 30.2 °F 21.3 °F 28.4 °F 93% 29.87 in 1.2 mi North 10.4 mph - N/A Snow Light Snow
10:38 PM 30.2 °F 21.3 °F 28.4 °F 93% 29.87 in 1.0 mi North 10.4 mph - N/A Snow Light Snow
10:41 PM 30.2 °F 21.3 °F 28.4 °F 93% 29.87 in 0.8 mi NNE 10.4 mph - N/A Snow Light Snow
10:43 PM 30.2 °F 20.8 °F 28.4 °F 93% 29.87 in 0.8 mi NNE 11.5 mph - N/A Snow Light Snow
10:47 PM 30.2 °F 22.6 °F 28.4 °F 93% 29.87 in 1.8 mi North 8.1 mph - N/A Snow Light Snow
10:55 PM 29.1 °F 24.1 °F 28.0 °F 96% 29.87 in 1.8 mi NNE 4.6 mph - 0.03 in Snow Light Snow
10:57 PM 28.4 °F 21.2 °F 28.4 °F 100% 29.87 in 1.5 mi Variable 6.9 mph - N/A Snow Light Snow
11:06 PM 28.4 °F 21.2 °F 28.4 °F 100% 29.88 in 1.8 mi Variable 6.9 mph - N/A Snow Light Snow
11:07 PM 28.4 °F 21.2 °F 28.4 °F 100% 29.88 in 2.0 mi Variable 6.9 mph - N/A Snow Light Snow
11:09 PM 28.4 °F 22.2 °F 28.4 °F 100% 29.88 in 2.5 mi Variable 5.8 mph - N/A Snow Light Snow
11:10 PM 28.4 °F 22.2 °F 26.6 °F 93% 29.88 in 2.5 mi North 5.8 mph - N/A Snow Light Snow
11:11 PM 28.4 °F 22.2 °F 26.6 °F 93% 29.88 in 3.0 mi Variable 5.8 mph - N/A Snow Light Snow
11:16 PM 28.4 °F 21.2 °F 26.6 °F 93% 29.88 in 2.5 mi NNW 6.9 mph - N/A Snow Light Snow
11:19 PM 28.4 °F 21.2 °F 26.6 °F 93% 29.88 in 2.0 mi North 6.9 mph - N/A Snow Light Snow
11:28 PM 28.4 °F 22.2 °F 26.6 °F 93% 29.89 in 2.5 mi Variable 5.8 mph - N/A Snow Light Snow
11:35 PM 28.4 °F 23.3 °F 26.6 °F 93% 29.89 in 2.0 mi NNE 4.6 mph - N/A Snow Light Snow
11:39 PM 28.4 °F 23.3 °F 26.6 °F 93% 29.89 in 1.8 mi NNE 4.6 mph - N/A Snow Light Snow
11:42 PM 28.4 °F - 26.6 °F 93% 29.89 in 1.5 mi Calm Calm - N/A Snow Light Snow
11:48 PM 28.4 °F 24.6 °F 28.4 °F 100% 29.89 in 1.8 mi NNE 3.5 mph - N/A Snow Light Snow
11:52 PM 28.4 °F - 28.4 °F 100% 29.89 in 2.0 mi Calm Calm - N/A Snow Light Snow
11:53 PM 28.4 °F - 28.4 °F 100% 29.89 in 1.8 mi Calm Calm - N/A Snow Light Snow
11:55 PM 28.8 °F - 27.5 °F 95% 29.89 in 1.8 mi Calm Calm - 0.00 in Snow Light Snow
11:56 PM 28.4 °F - 28.4 °F 100% 29.89 in 1.8 mi Calm Calm - N/A Snow Light Snow
11:58 PM 28.4 °F - 28.4 °F 100% 29.90 in 1.5 mi Calm Calm - N/A Snow Light Snow